FW9643 Weather Reports


time (UTC)temp
F
wind
direction
speed
knots
gust
knots
rain 1hr
in
rain 24hr
in
rain mn
in
humidity
%
barometer
mb
20260507193133 0 48 0.9 0.9 0.00 0.02 0.02 1019.6
20260507192629 0 66 0.9 1.7 0.00 0.02 0.02 1019.8
20260507192126 0 22 1.7 1.7 0.00 0.02 0.02 1019.6
20260507191621 0 53 0.9 0.9 0.00 0.02 0.02 1019.9
20260507191119 0 35 0.9 0.9 0.00 0.02 0.02 1019.6
20260507190616 0 14 0.9 1.7 0.00 0.02 0.02 1020.0
20260507190115 0 70 0.0 0.0 0.00 0.02 0.02 1020.3
20260507185613 0 41 0.0 0.0 0.00 0.02 0.02 1020.1
20260507185109 0 47 0.0 0.0 0.00 0.02 0.02 1020.3
20260507184607 0 46 0.0 0.9 0.00 0.02 0.02 1020.7
20260507184104 0 76 0.9 2.6 0.00 0.02 0.02 1020.3
20260507183600 0 75 0.0 0.0 0.00 0.02 0.02 1020.4
20260507183058 0 46 0.9 1.7 0.00 0.02 0.02 1020.4
20260507182554 0 51 0.0 0.9 0.00 0.02 0.02 1020.6
20260507182049 0 58 0.0 0.9 0.00 0.02 0.02 1020.7
20260507181547 0 44 0.9 0.9 0.00 0.02 0.02 1020.7
20260507181043 0 44 0.0 0.0 0.00 0.02 0.02 1020.9
20260507180539 0 51 0.0 0.0 0.00 0.02 0.02 1020.6
20260507180037 0 46 1.7 1.7 0.00 0.02 0.02 1020.6
20260507175532 0 47 0.0 0.0 0.00 0.02 0.02 1020.7
20260507175031 0 39 0.0 0.0 0.00 0.02 0.02 1020.9
20260507174527 0 38 0.0 0.0 0.00 0.02 0.02 1020.5
20260507174025 0 47 0.9 0.9 0.00 0.02 0.02 1020.6
20260507173521 0 58 0.0 0.9 0.00 0.02 0.02 1020.7
20260507173019 0 49 0.0 0.0 0.00 0.02 0.02 1020.6
20260507172515 0 49 0.9 1.7 0.00 0.02 0.02 1020.9
20260507172012 0 59 0.0 0.0 0.00 0.02 0.02 1021.0
20260507171507 0 51 0.9 1.7 0.00 0.02 0.02 1020.9
20260507171005 0 49 0.9 0.9 0.00 0.02 0.02 1020.9
20260507170501 0 47 0.9 0.9 0.00 0.02 0.02 1021.1
20260507165958 0 46 0.0 0.0 0.00 0.02 0.02 1021.3
20260507165454 0 42 0.0 0.9 0.00 0.02 0.02 1021.1
20260507164950 0 44 0.9 0.9 0.00 0.02 0.02 1021.1
20260507164447 0 47 0.0 0.0 0.00 0.02 0.02 1021.3
20260507163944 0 61 0.0 0.9 0.00 0.02 0.02 1021.5
20260507163441 0 53 0.0 0.0 0.00 0.02 0.02 1021.2
20260507162938 0 44 0.9 0.9 0.00 0.02 0.02 1021.5
20260507162433 0 41 0.0 0.9 0.00 0.02 0.02 1021.5
20260507161931 0 107 1.7 1.7 0.00 0.02 0.02 1021.5
20260507161427 0 51 0.9 0.9 0.00 0.02 0.02 1021.6
20260507160924 0 48 0.0 0.0 0.00 0.02 0.02 1021.6
20260507160420 0 42 1.7 1.7 0.00 0.02 0.02 1021.8
20260507155916 0 46 0.9 1.7 0.00 0.02 0.02 1021.7
20260507155412 0 22 0.0 0.9 0.00 0.02 0.02 1021.6
20260507154909 0 52 0.0 0.9 0.05 0.02 0.02 1021.6
20260507154406 0 51 0.9 0.9 0.05 0.02 0.02 1021.8
20260507153903 0 59 0.9 0.9 0.05 0.02 0.02 1021.7
20260507153359 0 36 0.0 0.9 0.00 0.01 0.01 1021.6
20260507152856 0 49 0.9 0.9 0.00 0.01 0.01 1021.7
20260507152352 0 57 2.6 2.6 0.07 0.01 0.01 1021.6
20260507151848 0 46 0.9 0.9 0.07 0.01 0.01 1021.7
20260507151344 0 0.0 0.0 0.00 0.00 0.00 1021.7
20260507150842 0 0.0 0.0 0.00 0.00 0.00 1021.6
20260507150338 0 0.0 0.0 0.00 0.00 0.00 1021.7
20260507145834 0 0.0 0.0 0.00 0.00 0.00 1021.8
20260507145331 0 0.0 0.0 0.00 0.00 0.00 1021.8
20260507144829 0 0.0 0.0 0.00 0.00 0.00 1022.0
20260507144326 0 0.0 0.0 0.00 0.00 0.00 1022.0
20260507143822 0 0.0 0.0 0.00 0.00 0.00 1022.1
20260507143319 0 0.0 0.0 0.00 0.00 0.00 1021.7
20260507142815 0 0.0 0.0 0.00 0.00 0.00 1021.8
20260507142312 0 0.0 0.0 0.00 0.00 0.00 1021.7
20260507141809 0 0.0 0.0 0.00 0.00 0.00 1022.0
20260507141306 0 0.0 0.0 0.00 0.00 0.00 1021.8
20260507140801 0 0.0 0.0 0.00 0.00 0.00 1021.8
20260507140259 0 0.0 0.0 0.00 0.00 0.00 1022.0
20260507135756 0 0.0 0.0 0.00 0.00 0.00 1021.7
20260507135253 0 0.0 0.0 0.00 0.00 0.00 1021.7
20260507134750 0 0.0 0.0 0.00 0.00 0.00 1021.8
20260507134246 0 0.0 0.0 0.00 0.00 0.00 1021.7
20260507133742 0 0.0 0.0 0.00 0.00 0.00 1021.6
20260507133239 0 0.0 0.0 0.00 0.00 0.00 1021.7
20260507132736 0 0.0 0.0 0.00 0.00 0.00 1021.8
20260507132233 0 0.0 0.0 0.00 0.00 0.00 1021.7
20260507131730 0 0.0 0.0 0.00 0.00 0.00 1021.5
20260507131227 0 0.0 0.0 0.00 0.00 0.00 1021.5
20260507130724 0 0.0 0.0 0.00 0.00 0.00 1021.5
20260507130222 0 0.0 0.0 0.00 0.00 0.00 1021.6
20260507125720 0 0.0 0.0 0.00 0.00 0.00 1021.5
20260507125217 0 0.0 0.0 0.00 0.00 0.00 1021.3
20260507124714 0 0.0 0.0 0.00 0.00 0.00 1021.5
20260507124211 0 0.0 0.0 0.00 0.00 0.00 1021.3
20260507123709 0 0.0 0.0 0.00 0.00 0.00 1021.2
20260507123206 0 0.0 0.0 0.00 0.00 0.00 1021.0
20260507122701 0 0.0 0.0 0.00 0.00 0.00 1021.1
20260507122157 0 0.0 0.0 0.00 0.00 0.00 1021.3
20260507121653 0 0.0 0.0 0.00 0.00 0.00 1021.0
20260507121149 0 0.0 0.0 0.00 0.00 0.00 1021.0
20260507120646 0 0.0 0.0 0.00 0.00 0.00 1021.0
20260507120143 0 0.0 0.0 0.00 0.00 0.00 1021.0
20260507115639 0 0.0 0.0 0.00 0.00 0.00 1021.0
20260507115134 0 0.0 0.0 0.00 0.00 0.00 1021.2
20260507114630 0 0.0 0.0 0.00 0.00 0.00 1021.1
20260507114128 0 0.0 0.0 0.00 0.00 0.00 1021.2
20260507113625 0 0.0 0.0 0.00 0.00 0.00 1021.2
20260507113122 0 0.0 0.0 0.00 0.00 0.00 1021.0
20260507112620 0 0.0 0.0 0.00 0.00 0.00 1021.2
20260507112116 0 0.0 0.0 0.00 0.00 0.00 1021.0
20260507111614 0 0.0 0.0 0.00 0.00 0.00 1021.3
20260507111110 0 0.0 0.0 0.00 0.00 0.00 1021.0
20260507110607 0 0.0 0.0 0.00 0.00 0.00 1021.0
20260507110103 0 0.0 0.0 0.00 0.00 0.00 1021.1
20260507105600 0 0.0 0.0 0.00 0.00 0.00 1021.1
20260507105056 0 0.0 0.0 0.00 0.00 0.00 1021.0
20260507104554 0 0.0 0.0 0.00 0.00 0.00 1021.1
20260507104050 0 0.0 0.0 0.00 0.00 0.00 1021.0
20260507103546 0 0.0 0.0 0.00 0.00 0.00 1021.0
20260507103043 0 0.0 0.0 0.00 0.00 0.00 1021.0
20260507102539 0 0.0 0.0 0.00 0.00 0.00 1021.0
20260507102036 0 0.0 0.0 0.00 0.00 0.00 1021.2
20260507101531 0 0.0 0.0 0.00 0.00 0.00 1021.0
20260507101027 0 0.0 0.0 0.00 0.00 0.00 1021.0
20260507100525 0 0.0 0.0 0.00 0.00 0.00 1021.1
20260507100023 0 0.0 0.0 0.00 0.00 0.00 1021.5
20260507095521 0 0.0 0.0 0.00 0.00 0.00 1021.0
20260507095017 0 0.0 0.0 0.00 0.00 0.00 1021.2
20260507094513 0 0.0 0.0 0.00 0.00 0.00 1021.3
20260507094011 0 0.0 0.0 0.00 0.00 0.00 1021.3
20260507093508 0 0.0 0.0 0.00 0.00 0.00 1021.5
20260507093007 0 0.0 0.0 0.00 0.00 0.00 1021.3
20260507092502 0 0.0 0.0 0.00 0.00 0.00 1021.3
20260507091959 0 0.0 0.0 0.00 0.00 0.00 1021.1
20260507091456 0 0.0 0.0 0.00 0.00 0.00 1021.6
20260507090952 0 0.0 0.0 0.00 0.00 0.00 1021.3
20260507090448 0 0.0 0.0 0.00 0.00 0.00 1021.3
20260507085945 0 0.0 0.0 0.00 0.00 0.00 1021.3
20260507085442 0 0.0 0.0 0.00 0.00 0.00 1021.3
20260507084938 0 0.0 0.0 0.00 0.00 0.00 1021.8
20260507084436 0 0.0 0.0 0.00 0.00 0.00 1021.5
20260507083933 0 0.0 0.0 0.00 0.00 0.00 1021.5
20260507083429 0 0.0 0.0 0.00 0.00 0.00 1021.5
20260507082925 0 0.0 0.0 0.00 0.00 0.00 1021.6
20260507082421 0 0.0 0.0 0.00 0.00 0.00 1021.5
20260507081918 0 0.0 0.0 0.00 0.00 0.00 1021.7
20260507081414 0 0.0 0.0 0.00 0.00 0.00 1021.7
20260507080911 0 0.0 0.0 0.00 0.00 0.00 1021.7
20260507080408 0 0.0 0.0 0.00 0.00 0.00 1021.6
20260507075903 0 0.0 0.0 0.00 0.00 0.00 1021.8
20260507075359 0 0.0 0.0 0.00 0.00 0.00 1022.0
20260507074856 0 0.0 0.0 0.00 0.00 0.00 1022.1
20260507074353 0 0.0 0.0 0.00 0.00 0.00 1022.1
20260507073850 0 0.0 0.0 0.00 0.00 0.00 1022.2
20260507073347 0 0.0 0.0 0.00 0.00 0.00 1022.3
20260507072844 0 0.0 0.0 0.00 0.00 0.00 1022.2
20260507072341 0 0.0 0.0 0.00 0.00 0.00 1022.2
20260507071839 0 0.0 0.0 0.00 0.00 0.00 1022.0
20260507071336 0 0.0 0.0 0.00 0.00 0.00 1022.1
20260507070832 0 0.0 0.0 0.00 0.00 0.00 1022.1
20260507070329 0 0.0 0.0 0.00 0.00 0.00 1022.2
20260507065826 0 0.0 0.0 0.00 0.00 0.00 1022.3
20260507065322 0 0.0 0.0 0.00 0.00 0.00 1022.1
20260507064820 0 0.0 0.0 0.00 0.00 0.00 1022.3
20260507064318 0 0.0 0.0 0.00 0.00 0.00 1022.2
20260507063816 0 0.0 0.0 0.00 0.00 0.00 1022.6
20260507063312 0 0.0 0.0 0.00 0.00 0.00 1022.2
20260507062809 0 0.0 0.0 0.00 0.00 0.00 1022.2
20260507062306 0 0.0 0.0 0.00 0.00 0.00 1022.0
20260507061804 0 0.0 0.0 0.00 0.00 0.00 1022.0
20260507061302 0 0.0 0.0 0.00 0.00 0.00 1022.2
20260507060800 0 0.0 0.0 0.00 0.00 0.00 1022.2
20260507060256 0 0.0 0.0 0.00 0.00 0.00 1022.2
20260507055753 0 0.0 0.0 0.00 0.00 0.00 1022.2
20260507055248 0 0.0 0.0 0.00 0.00 0.00 1022.0
20260507054745 0 0.0 0.0 0.00 0.00 0.00 1022.1
20260507054241 0 0.0 0.0 0.00 0.00 0.00 1022.0
20260507053739 0 0.0 0.0 0.00 0.00 0.00 1022.0
20260507053236 0 0.0 0.0 0.00 0.00 0.00 1022.2
20260507052735 0 0.0 0.0 0.00 0.00 0.00 1022.1
20260507052231 0 0.0 0.0 0.00 0.00 0.00 1022.1
20260507051729 0 0.0 0.0 0.00 0.00 0.00 1022.1
20260507051226 0 0.0 0.0 0.00 0.00 0.00 1022.0
20260507050722 0 0.0 0.0 0.00 0.00 0.00 1022.0
20260507050220 0 0.0 0.0 0.00 0.00 0.00 1022.0
20260507045716 0 0.0 0.0 0.00 0.00 0.00 1022.1
20260507045212 0 0.0 0.0 0.00 0.00 0.00 1021.8
20260507044710 0 0.0 0.0 0.00 0.00 0.00 1022.1
20260507044206 0 0.0 0.0 0.00 0.00 0.00 1021.8
20260507043702 0 0.0 0.0 0.00 0.00 0.00 1021.8
20260507043159 0 0.0 0.0 0.00 0.00 0.00 1021.7
20260507042656 0 0.0 0.0 0.00 0.00 0.00 1021.8
20260507042151 0 0.0 0.0 0.00 0.00 0.00 1021.8
20260507041648 0 0.0 0.0 0.00 0.00 0.00 1021.7
20260507041144 0 0.0 0.0 0.00 0.00 0.00 1021.5
20260507040642 0 0.0 0.0 0.00 0.00 0.00 1021.6
20260507040138 0 0.0 0.0 0.00 0.00 0.00 1021.7
20260507035634 0 0.0 0.0 0.00 0.00 0.00 1021.7
20260507035130 0 0.0 0.0 0.00 0.00 0.00 1021.7
20260507034627 0 0.0 0.0 0.00 0.00 0.00 1021.7
20260507034125 0 0.0 0.0 0.00 0.00 0.00 1021.2
20260507033623 0 0.0 0.0 0.00 0.00 0.00 1021.5
20260507033120 0 0.0 0.0 0.00 0.00 0.00 1021.2
20260507032617 0 0.0 0.0 0.00 0.00 0.00 1021.5
20260507032113 0 0.0 0.0 0.00 0.00 0.00 1021.3
20260507031610 0 0.0 0.0 0.00 0.00 0.00 1021.3
20260507031106 0 0.0 0.0 0.00 0.00 0.00 1021.3
20260507030603 0 0.0 0.0 0.00 0.00 0.00 1021.2
20260507030101 0 0.0 0.0 0.00 0.00 0.00 1021.1
20260507025558 0 0.0 0.0 0.00 0.00 0.00 1021.1
20260507025055 0 0.0 0.0 0.00 0.00 0.00 1021.0
20260507024553 0 0.0 0.0 0.00 0.00 0.00 1021.0
20260507024050 0 0.0 0.0 0.00 0.00 0.00 1021.1
20260507023545 0 0.0 0.0 0.00 0.00 0.00 1021.1
20260507023043 0 0.0 0.0 0.00 0.00 0.00 1020.9
20260507022539 0 0.0 0.0 0.00 0.00 0.00 1021.0
20260507022035 0 0.0 0.0 0.00 0.00 0.00 1021.1
20260507021531 0 0.0 0.0 0.00 0.00 0.00 1021.1
20260507021028 0 0.0 0.0 0.00 0.00 0.00 1021.1
20260507020525 0 0.0 0.0 0.00 0.00 0.00 1021.0
20260507020022 0 0.0 0.0 0.00 0.00 0.00 1021.0
20260507015520 0 0.0 0.0 0.00 0.00 0.00 1021.1
20260507015017 0 0.0 0.0 0.00 0.00 0.00 1021.0
20260507014514 0 0.0 0.0 0.00 0.00 0.00 1021.3
20260507014010 0 0.0 0.0 0.00 0.00 0.00 1021.0
20260507013506 0 0.0 0.0 0.00 0.00 0.00 1021.1
20260507013004 0 0.0 0.0 0.00 0.00 0.00 1021.1
20260507012501 0 0.0 0.0 0.00 0.00 0.00 1021.2
20260507011957 0 0.0 0.0 0.00 0.00 0.00 1021.2
20260507011454 0 0.0 0.0 0.00 0.00 0.00 1021.1
20260507010950 0 0.0 0.0 0.00 0.00 0.00 1021.0
20260507010444 0 0.0 0.0 0.00 0.00 0.00 1021.3
20260507005942 0 0.0 0.0 0.00 0.00 0.00 1021.2
20260507005439 0 0.0 0.0 0.00 0.00 0.00 1021.6
20260507004935 0 0.0 0.0 0.00 0.00 0.00 1021.3
20260507004432 0 0.0 0.0 0.00 0.00 0.00 1021.3
20260507003930 0 0.0 0.0 0.00 0.00 0.00 1021.2
20260507003425 0 0.0 0.0 0.00 0.00 0.00 1021.2
20260507002920 0 0.0 0.0 0.00 0.00 0.00 1021.1
20260507002416 0 0.0 0.0 0.00 0.00 0.00 1021.2
20260507001914 0 0.0 0.0 0.00 0.00 0.00 1021.2
20260507001410 0 0.0 0.0 0.00 0.00 0.00 1021.1
20260507000908 0 0.0 0.0 0.00 0.00 0.00 1021.3
20260507000405 0 0.0 0.0 0.00 0.00 0.00 1021.2
20260506235859 0 0.0 0.0 0.00 0.00 0.00 1021.3
20260506235356 0 0.0 0.0 0.00 0.00 0.00 1021.3
20260506234852 0 0.0 0.0 0.00 0.00 0.00 1021.2
20260506234350 0 0.0 0.0 0.00 0.00 0.00 1021.3
20260506233847 0 0.0 0.0 0.00 0.00 0.00 1021.1
20260506233343 0 0.0 0.0 0.00 0.00 0.00 1021.2
20260506232841 0 0.0 0.0 0.00 0.00 0.00 1021.5
20260506232336 0 0.0 0.0 0.00 0.00 0.00 1021.6
20260506231833 0 0.0 0.0 0.00 0.00 0.00 1021.2
20260506231331 0 0.0 0.0 0.00 0.00 0.00 1021.5
20260506230828 0 0.0 0.0 0.00 0.00 0.00 1021.2
20260506230324 0 0.0 0.0 0.00 0.00 0.00 1021.5
20260506225820 0 0.0 0.0 0.00 0.00 0.00 1021.3
20260506225318 0 0.0 0.0 0.00 0.00 0.00 1021.6
20260506224815 0 0.0 0.0 0.00 0.00 0.00 1021.2
20260506224312 0 0.0 0.0 0.00 0.00 0.00 1021.3
20260506223808 0 0.0 0.0 0.00 0.00 0.00 1021.2
20260506223303 0 0.0 0.0 0.00 0.00 0.00 1021.7
20260506222801 0 0.0 0.0 0.00 0.00 0.00 1021.7
20260506222256 0 0.0 0.0 0.00 0.00 0.00 1021.8
20260506221754 0 0.0 0.0 0.00 0.00 0.00 1021.3
20260506221252 0 0.0 0.0 0.00 0.00 0.00 1021.6
20260506220749 0 0.0 0.0 0.00 0.00 0.00 1021.8
20260506220244 0 0.0 0.0 0.00 0.00 0.00 1021.7
20260506215741 0 0.0 0.0 0.00 0.00 0.00 1021.8
20260506215237 0 0.0 0.0 0.00 0.00 0.00 1022.0
20260506214733 0 0.0 0.0 0.00 0.00 0.00 1021.8
20260506214230 0 0.0 0.0 0.00 0.00 0.00 1022.2
20260506213728 0 0.0 0.0 0.00 0.00 0.00 1022.0
20260506213225 0 0.0 0.0 0.00 0.00 0.00 1022.0
20260506212723 0 0.0 0.0 0.00 0.00 0.00 1022.1
20260506212218 0 0.0 0.0 0.00 0.00 0.00 1022.3
20260506211714 0 0.0 0.0 0.00 0.00 0.00 1022.2
20260506211210 0 0.0 0.0 0.00 0.00 0.00 1022.4
20260506210707 0 0.0 0.0 0.00 0.00 0.00 1022.4
20260506210204 0 0.0 0.0 0.00 0.00 0.00 1022.4
20260506205701 0 0.0 0.0 0.00 0.00 0.00 1022.2
20260506205156 0 0.0 0.0 0.00 0.00 0.00 1022.6
20260506204654 0 0.0 0.0 0.00 0.00 0.00 1022.4
20260506204150 0 0.0 0.0 0.00 0.00 0.00 1022.4
20260506203649 0 0.0 0.0 0.00 0.00 0.00 1022.4
20260506203146 0 0.0 0.0 0.00 0.00 0.00 1022.3
20260506202644 0 0.0 0.0 0.00 0.00 0.00 1022.6
20260506202139 0 0.0 0.0 0.00 0.00 0.00 1022.7
20260506201636 0 0.0 0.0 0.00 0.00 0.00 1022.7
20260506201133 0 0.0 0.0 0.00 0.00 0.00 1022.8
20260506200629 0 0.0 0.0 0.00 0.00 0.00 1022.7
20260506200126 0 0.0 0.0 0.00 0.00 0.00 1022.6
20260506195623 0 0.0 0.0 0.00 0.00 0.00 1022.7
20260506195119 0 0.0 0.0 0.00 0.00 0.00 1022.6
20260506194617 0 0.0 0.0 0.00 0.00 0.00 1022.6
20260506194113 0 0.0 0.0 0.00 0.00 0.00 1022.3
20260506193611 0 0.0 0.0 0.00 0.00 0.00 1022.6